Weather Roundup
Issued by NWS Chicago, IL

Home | Current Version | Previous Version | Graphics & Text | Print | Product List | Glossary On
Versions: 1 2 3 4 5 6 7 8 9 10 11 12 13 14 15 16 17 18 19 20 21 22 23 24 25 26 27 28 29 30 31 32 33 34 35 36 37 38 39 40 41 42 43 44 45 46 47 48 49 50
000
NZUS59 KLOT 250808
HRRLOT

CHICAGO AREA WEATHER ROUNDUP
NATIONAL WEATHER SERVICE CHICAGO/ROMEOVILLE IL
300 AM CDT MON JUL 25 2016

NOTE: "FAIR" INDICATES FEW OR NO CLOUDS BELOW 12,000 FEET WITH NO
SIGNIFICANT WEATHER AND/OR OBSTRUCTIONS TO VISIBILITY.

* THESE STATIONS ARE NOT UNDER NWS QUALITY CONTROL. THEY ALSO MAY NOT
  REPORT WEATHER SUCH AS PRECIPITATION OR FOG.

ILZ005-006-012>014-019>023-250900-
NORTHEAST ILLINOIS

CITY           SKY/WX    TMP DP  RH WIND       PRES   REMARKS
OHARE          CLOUDY    74  67  78 SW9       29.97S
MIDWAY         CLOUDY    75  65  70 SW9       29.96F
AURORA         MOCLDY    73  70  90 S7        29.98S
LANSING*       CLOUDY    72  65  80 W9        29.96F
JOLIET*        CLOUDY    74  70  86 SW5       29.97F
WAUKEGAN       CLOUDY    77  68  73 W3        29.94S
DUPAGE AIRPORT MOCLDY    72  67  84 S7        29.97S
WHEELING       CLOUDY    75  67  76 S8        29.98R
KANKAKEE*      CLOUDY    71  67  88 W7        30.00R
MORRIS*        CLOUDY    73  70  90 S8        29.96F
LEWIS AIRPORT* CLOUDY    73  65  77 SW5       29.97F
NORTHERLY ISL    N/A     75  63  66 SW12        N/A
$$

WIZ051-052-058>065-066-070>072-250900-
SOUTHEAST WISCONSIN

CITY           SKY/WX    TMP DP  RH WIND       PRES   REMARKS
MILWAUKEE      CLOUDY    79  65  62 W6        29.95S HX  81
KENOSHA*       CLOUDY    74  68  81 W7        29.97R
RACINE*        CLOUDY    76  66  71 NW6       29.96S
BURLINGTON     CLOUDY    72  68  87 W3        29.97S
WAUKESHA       CLOUDY    70  63  78 W7        29.98R
$$

INZ001>003-010>013-019-020-250900-
NORTHWEST INDIANA

CITY           SKY/WX    TMP DP  RH WIND       PRES   REMARKS
GARY*          CLOUDY    74  73  96 W7        29.96F
MICHIGAN CITY* NOT AVBL
RENSSELAER*    NOT AVBL
VALPARAISO     CLOUDY    70  67  90 W13       29.96S
$$

LMZ740>746-250900-
SOUTHERN LAKE MICHIGAN

STATION/POSITION TIME  SKY/WX   TEMP WIND        PRES    VSBY
                                AIR  DIR/SP/G
                 (UTC)          (F)  (DEG/KT/KT) (MB)    (MI)
HARRISON CRIB    0700            76  230/ 19/ 20   N/A
BURNHAM HARBOR   0800            75  240/  5/ 13   N/A
CALUMET HARBOR   0700            73  230/  8/ 10 1014.4R
BURNS HARBOR     0700            74  180/  5/ 20 1014.6S
MICHIGAN CITY    0700            73  210/ 10/ 12   N/A
$$

ABBREVIATIONS USED IN REMARKS
   TC - TEMPERATURE IN CELSIUS
  WCI - WIND CHILL INDEX
   HX - HEAT INDEX
  VSB - VISIBILITY
$$



USA.gov is the U.S. government's official web portal to all federal, state and local government web resources and services.